Retour au catalogue

YAOGAN-30 R

ActifMilitaireVLEO
NORAD 45460·PAYLOAD·🇨🇳 China

Lancé Mar 24, 2020 depuis Xichang Satellite Launch Center

Loading…

Prochains Passages (prochaines 24 heures)

TLE

FraisSource: Space-Track

Époque: Sep 14, 2026, 18:47 UTC

1 45460U 20021A   26257.78304405  .00001931  00000-0  14252-3 0  9998
2 45460  34.9959  24.6554 0002933  94.1933 265.9111 15.03073658354041

Suivez YAOGAN-30 R en temps réel avec AllMySat

Download on the App Store